Regional Weather Roundup
Issued by NWS

Home | Current Version | Previous Version | Text Only | Print | Product List | Glossary On
Versions: 1 2 3 4 5 6 7 8 9 10 11 12 13 14 15 16 17 18 19 20 21 22 23 24 25 26 27 28 29 30 31 32 33 34 35 36 37 38 39 40 41 42 43 44 45 46 47 48 49 50
000
ASUS43 KTOP 230359
RWRKS

WEATHER ROUNDUP FOR KANSAS
NATIONAL WEATHER SERVICE GOODLAND KS
1100 PM CDT FRI AUG 22 2014

NOTE:  "FAIR" INDICATES FEW OR NO CLOUDS BELOW 12,000 FEET WITH NO
SIGNIFICANT WEATHER AND/OR OBSTRUCTIONS TO VISIBILITY.

KSZ001>006-013>018-027>032-041>047-230500-
NORTHWEST KANSAS

CITY           SKY/WX    TMP DP  RH WIND       PRES   REMARKS
GOODLAND       CLOUDY    65  64  97 E3        30.01S
HAYS           CLOUDY    73  64  73 N9        29.91F
HILL CITY      TSTM      70  67  90 NW9       29.92F
RUSSELL        CLOUDY    77  68  73 E7        29.87F
$$

KSZ061>065-074>080-084>089-230500-
SOUTHWEST KANSAS

CITY           SKY/WX    TMP DP  RH WIND       PRES   REMARKS
DODGE CITY     PTCLDY    81  58  45 S8        29.90R
ELKHART          N/A     77  59  54 NW7         N/A
GARDEN CITY    CLOUDY    78  62  57 SW8       29.91R
GREAT BEND     MOCLDY    82  64  54 S14       29.87S
LIBERAL        CLOUDY    79  59  50 SE20G25   29.95R THUNDER
$$

KSZ066>073-081>083-090>101-230500-
SOUTHEAST KANSAS

CITY           SKY/WX    TMP DP  RH WIND       PRES   REMARKS
CHANUTE        CLEAR     83  72  69 S8        29.93R
COFFEYVILLE    CLEAR     85  72  65 S10       29.92R
HUTCHINSON     PTCLDY    84  67  56 S13       29.89S
NEWTON         PTCLDY    86  64  48 S13       29.93F
PARSONS        CLEAR     84  72  67 S6        29.94R
WICHITA INTL   PTCLDY    86  66  51 S14       29.89R
WICHITA JABRA  CLEAR     86  67  52 S14       29.90R
WINFIELD       CLEAR     85  68  56 S14       29.92R
$$

KSZ007>012-019>026-033>040-048>060-102>105-230500-
NORTHEAST KANSAS

CITY           SKY/WX    TMP DP  RH WIND       PRES   REMARKS
CONCORDIA      CLOUDY    79  72  79 NW8       29.92R
EMPORIA        CLEAR     75  69  81 S8        29.91S
LAWRENCE       CLOUDY    80  71  74 E5        29.92R
MANHATTAN      MOCLDY    82  64  54 E3        29.89R
OLATHE IND     MOCLDY    76  70  82 S5        29.93S
OLATHE EXE     MOCLDY    77  68  73 SE3       29.93R
SALINA         CLOUDY    84  69  60 SE9       29.86S
TOPEKA BILLARD MOCLDY    81  74  79 E3        29.91R
TOPEKA FORBES  MOCLDY    79  70  74 SE6       29.91S
$$


USA.gov is the U.S. government's official web portal to all federal, state and local government web resources and services.